When you browse on this site, cookies collect data to enhance your experience and personalize the content and advertising you see.
Visit our Privacy Policy to learn more. By continuing to use the site, you agree to this use of cookies and data.
  • In Netherlands
  • List of Countries
  • For 7 days
  • Water Temperature
  • Satellite Maps
  • Weather Map
  • Weather Widgets
  • user-avatar
    Login

    Hourly Weather Kitzbuhel

    Today, 19 January, Saturday

    Time Temperature Precipitation Wind Pressure Humidity
    00:00 -12°C° 0 mm 2 mps 674 mmHg 73%
    01:00 -10°C° 0 mm 2 mps 674 mmHg 69%
    02:00 -10°C° 0 mm 2 mps 674 mmHg 70%
    03:00 -10°C° 0 mm 2 mps 674 mmHg 70%
    04:00 -10°C° 0 mm 2 mps 674 mmHg 71%
    05:00 -10°C° 0 mm 2 mps 674 mmHg 72%
    06:00 -9°C° 0 mm 2 mps 674 mmHg 73%
    07:00 -9°C° 0 mm 2 mps 674 mmHg 74%
    08:00 -7°C° 0 mm 1 mps 674 mmHg 76%
    09:00 -4°C° 0 mm 1 mps 674 mmHg 78%
    10:00 -3°C° 0 mm 1 mps 674 mmHg 80%
    11:00 -2°C° 0 mm 1 mps 674 mmHg 79%
    12:00 0°C° 0 mm 1 mps 673 mmHg 77%
    13:00 0°C° 0 mm 0 mps 673 mmHg 75%
    14:00 -1°C° 0 mm 0 mps 673 mmHg 80%
    15:00 -2°C° 0 mm 0 mps 672 mmHg 84%
    16:00 -3°C° 0 mm 0 mps 672 mmHg 88%
    17:00 -3°C° 0 mm 1 mps 672 mmHg 87%
    18:00 -3°C° 0 mm 1 mps 672 mmHg 86%
    19:00 -4°C° 0 mm 1 mps 672 mmHg 85%
    20:00 -4°C° 0 mm 1 mps 672 mmHg 83%
    21:00 -4°C° 0 mm 1 mps 672 mmHg 81%
    22:00 -6°C° 0 mm 2 mps 672 mmHg 79%
    23:00 -7°C° 0 mm 2 mps 672 mmHg 78%

    Tomorrow, 20 January, Sunday

    Time Temperature Precipitation Wind Pressure Humidity
    00:00 -7°C° 0 mm 2 mps 672 mmHg 77%
    01:00 -7°C° 0 mm 2 mps 672 mmHg 76%
    02:00 -7°C° 0 mm 2 mps 671 mmHg 76%
    03:00 -8°C° 0 mm 2 mps 671 mmHg 75%
    04:00 -8°C° 0 mm 2 mps 671 mmHg 74%
    05:00 -8°C° 0 mm 2 mps 671 mmHg 74%
    06:00 -8°C° 0 mm 2 mps 671 mmHg 74%
    07:00 -8°C° 0 mm 2 mps 671 mmHg 74%
    08:00 -6°C° 0 mm 1 mps 671 mmHg 75%
    09:00 -4°C° 0 mm 1 mps 672 mmHg 77%
    10:00 -2°C° 0 mm 1 mps 672 mmHg 78%
    11:00 -1°C° 0 mm 1 mps 672 mmHg 76%
    12:00 0°C° 0 mm 1 mps 672 mmHg 75%
    13:00 0°C° 0 mm 0 mps 672 mmHg 73%
    14:00 -1°C° 0 mm 0 mps 672 mmHg 77%
    15:00 -2°C° 0 mm 0 mps 672 mmHg 81%
    16:00 -3°C° 0 mm 0 mps 672 mmHg 86%
    17:00 -3°C° 0 mm 1 mps 672 mmHg 85%
    18:00 -4°C° 0 mm 1 mps 672 mmHg 84%
    19:00 -6°C° 0 mm 1 mps 673 mmHg 83%
    20:00 -7°C° 0 mm 1 mps 673 mmHg 80%
    21:00 -7°C° 0 mm 1 mps 673 mmHg 78%
    22:00 -7°C° 0 mm 1 mps 674 mmHg 75%
    23:00 -7°C° 0 mm 1 mps 674 mmHg 75%

    Day after tomorrow, 21 January, Monday

    Time Temperature Precipitation Wind Pressure Humidity
    00:00 -7°C° 0 mm 1 mps 674 mmHg 75%
    01:00 -7°C° 0 mm 1 mps 674 mmHg 75%
    02:00 -8°C° 0 mm 1 mps 674 mmHg 76%
    03:00 -8°C° 0 mm 1 mps 674 mmHg 77%
    04:00 -8°C° 0 mm 1 mps 674 mmHg 78%
    05:00 -8°C° 0 mm 1 mps 675 mmHg 79%
    06:00 -8°C° 0 mm 1 mps 675 mmHg 80%
    07:00 -8°C° 0 mm 1 mps 675 mmHg 81%
    08:00 -7°C° 0 mm 1 mps 675 mmHg 82%
    09:00 -6°C° 0 mm 0 mps 676 mmHg 83%
    10:00 -4°C° 0 mm 0 mps 676 mmHg 84%
    11:00 -3°C° 0 mm 0 mps 676 mmHg 84%
    12:00 -2°C° 0 mm 1 mps 676 mmHg 84%
    13:00 -1°C° 0 mm 1 mps 676 mmHg 84%
    14:00 -1°C° 0 mm 1 mps 675 mmHg 87%
    15:00 -2°C° 0 mm 1 mps 675 mmHg 90%
    16:00 -3°C° 0 mm 1 mps 675 mmHg 93%
    17:00 -4°C° 0 mm 1 mps 675 mmHg 93%
    18:00 -6°C° 0 mm 1 mps 675 mmHg 93%
    19:00 -8°C° 0 mm 1 mps 675 mmHg 93%
    20:00 -8°C° 0 mm 1 mps 675 mmHg 91%
    21:00 -8°C° 0 mm 1 mps 675 mmHg 89%
    22:00 -9°C° 0 mm 1 mps 674 mmHg 86%
    23:00 -9°C° 0 mm 1 mps 674 mmHg 84%

    22 January, Tuesday

    Time Temperature Precipitation Wind Pressure Humidity
    00:00 -9°C° 0 mm 1 mps 674 mmHg 82%
    01:00 -9°C° 0 mm 1 mps 674 mmHg 79%
    02:00 -10°C° 0 mm 2 mps 673 mmHg 77%
    03:00 -12°C° 0 mm 2 mps 673 mmHg 75%
    04:00 -12°C° 0 mm 2 mps 672 mmHg 73%
    05:00 -12°C° 0 mm 2 mps 672 mmHg 71%
    06:00 -12°C° 0 mm 2 mps 672 mmHg 68%
    07:00 -12°C° 0 mm 2 mps 671 mmHg 66%
    08:00 -9°C° 0 mm 2 mps 671 mmHg 68%
    09:00 -6°C° 0 mm 1 mps 671 mmHg 69%
    10:00 -4°C° 0 mm 1 mps 671 mmHg 71%
    11:00 -2°C° 0 mm 1 mps 670 mmHg 69%
    12:00 -1°C° 0 mm 1 mps 669 mmHg 67%
    13:00 +1°C° 0 mm 1 mps 669 mmHg 65%
    14:00 0°C° 0 mm 1 mps 668 mmHg 69%
    15:00 -1°C° 0 mm 1 mps 667 mmHg 74%
    16:00 -2°C° 0 mm 1 mps 666 mmHg 78%
    17:00 -3°C° 0 mm 1 mps 665 mmHg 77%
    18:00 -7°C° 0 mm 2 mps 665 mmHg 76%
    19:00 -8°C° 0 mm 2 mps 664 mmHg 76%
    20:00 -9°C° 0 mm 2 mps 664 mmHg 74%
    21:00 -9°C° 0 mm 2 mps 664 mmHg 72%
    22:00 -9°C° 0 mm 2 mps 664 mmHg 70%
    23:00 -9°C° 0 mm 2 mps 663 mmHg 71%

    23 January, Wednesday

    Time Temperature Precipitation Wind Pressure Humidity
    00:00 -10°C° 0 mm 2 mps 663 mmHg 71%
    01:00 -10°C° 0 mm 2 mps 662 mmHg 72%
    02:00 -10°C° 0 mm 2 mps 662 mmHg 72%
    03:00 -10°C° 0 mm 2 mps 662 mmHg 72%
    04:00 -12°C° 0 mm 2 mps 661 mmHg 73%
    05:00 -12°C° 0 mm 2 mps 661 mmHg 72%
    06:00 -12°C° 0 mm 2 mps 661 mmHg 71%
    07:00 -12°C° 0 mm 2 mps 661 mmHg 71%
    08:00 -9°C° 0 mm 1 mps 662 mmHg 72%
    09:00 -7°C° 0 mm 1 mps 662 mmHg 73%
    10:00 -6°C° 0 mm 1 mps 662 mmHg 75%
    11:00 -3°C° 0 mm 1 mps 662 mmHg 74%
    12:00 -2°C° 0 mm 1 mps 662 mmHg 72%
    13:00 -1°C° 0 mm 1 mps 662 mmHg 71%
    14:00 -2°C° 0 mm 1 mps 662 mmHg 77%
    15:00 -3°C° 0 mm 1 mps 662 mmHg 82%
    16:00 -3°C° 0 mm 1 mps 662 mmHg 88%
    17:00 -6°C° 0 mm 1 mps 662 mmHg 88%
    18:00 -7°C° 0 mm 1 mps 662 mmHg 89%
    19:00 -9°C° 0 mm 1 mps 662 mmHg 89%
    20:00 -9°C° 0 mm 1 mps 663 mmHg 86%
    21:00 -9°C° 0 mm 1 mps 663 mmHg 83%
    22:00 -8°C° 0 mm 1 mps 663 mmHg 81%
    23:00 -9°C° 0 mm 1 mps 664 mmHg 79%

    24 January, Thursday

    Time Temperature Precipitation Wind Pressure Humidity
    00:00 -9°C° 0 mm 1 mps 664 mmHg 78%
    01:00 -9°C° 0 mm 0 mps 664 mmHg 77%
    02:00 -9°C° 0 mm 1 mps 664 mmHg 76%
    03:00 -10°C° 0 mm 1 mps 663 mmHg 75%
    04:00 -10°C° 0 mm 1 mps 663 mmHg 74%
    05:00 -10°C° 0 mm 1 mps 664 mmHg 73%
    06:00 -10°C° 0 mm 1 mps 664 mmHg 72%
    07:00 -10°C° 0 mm 1 mps 664 mmHg 70%
    08:00 -8°C° 0 mm 0 mps 665 mmHg 72%
    09:00 -7°C° 0 mm 0 mps 665 mmHg 74%
    10:00 -5°C° 0 mm 0 mps 666 mmHg 76%
    11:00 -5°C° 0 mm 0 mps 666 mmHg 78%
    12:00 -3°C° 0 mm 1 mps 665 mmHg 80%
    13:00 -2°C° 0 mm 1 mps 665 mmHg 81%
    14:00 -3°C° 0 mm 1 mps 665 mmHg 85%
    15:00 -4°C° 0 mm 1 mps 665 mmHg 89%
    16:00 -6°C° 0 mm 1 mps 665 mmHg 93%
    17:00 -7°C° 0 mm 1 mps 665 mmHg 93%
    18:00 -8°C° 0 mm 0 mps 666 mmHg 93%
    19:00 -9°C° 0 mm 0 mps 666 mmHg 93%
    20:00 -10°C° 0 mm 0 mps 666 mmHg 92%
    21:00 -10°C° 0 mm 0 mps 666 mmHg 91%
    22:00 -10°C° 0 mm 0 mps 667 mmHg 90%
    23:00 -11°C° 0 mm 1 mps 667 mmHg 91%
    Show more